Location: Ernez
(36.4595°N, 29.8755°E)
Time: 08:15:51
(UTC+00:00)

Cosmos 1140 Rocket - Pass Details

Date: 13 November 2025
Orbit: 740 x 761 km, 74.1° (Epoch: 05 December)

Event Time Altitude Azimuth Distance (km) Brightness Sun altitude
Rises 15:16:10 0° 187° (S) 3,200 7.1 -5.1°
Reaches altitude 10° 15:18:32 10° 184° (S) 2,277 6.3 -5.6°
Maximum altitude 15:23:38 62° 104° (ESE) 846 3.5 -6.6°
Drops below altitude 10° 15:28:43 10° 25° (NNE) 2,278 5.6 -7.5°
Sets 15:31:06 0° 22° (NNE) 3,203 6.3 -8.0°
